QPF
0.00 0.00 0.00 0.00 0.01 0.01 0.01 0.01 0.01 0.01 0.00 0.00 0.00 0.00 0.00 0.01 0.01 0.01 0.02 0.02 0.03 0.03 0.03 0.03 0.03 0.03 0.04 0.04 0.04 0.04 0.05 0.06 0.07 0.05 0.04 0.03 0.04 0.05 0.05 0.04 0.04 0.04 0.04
0.00 0.00 0.00 0.00 0.00 0.01 0.01 0.01 0.01 0.01 0.01 0.01 0.01 0.01 0.01 0.01 0.01 0.01 0.02 0.02 0.02 0.02 0.02 0.02 0.02 0.02 0.03 0.03 0.03 0.05 0.05 0.05 0.06 0.06 0.05 0.04 0.03 0.03 0.02 0.02 0.02 0.02 0.02
0.00 0.00 0.00 0.00 0.00 0.01 0.01 0.01 0.01 0.01 0.01 0.01 0.01 0.01 0.01 0.01 0.01 0.01 0.01 0.01 0.01 0.01 0.01 0.01 0.01 0.02 0.02 0.01 0.02 0.01 0.01 0.01 0.02 0.02 0.02 0.02 0.01 0.01 0.01 0.01 0.01 0.01 0.01
0.00 0.00 0.00 0.00 0.00 0.00 0.01 0.01 0.01 0.01 0.01 0.01 0.01 0.01 0.01 0.01 0.01 0.01 0.01 0.01 0.02 0.02 0.02 0.02 0.02 0.02 0.02 0.02 0.02 0.01 0.01 0.01 0.01 0.01 0.01 0.01 0.01 0.01 0.01 0.01 0.01 0.01 0.01
0.00 0.00 0.00 0.00 0.00 0.00 0.00 0.00 0.00 0.01 0.02 0.03 0.03 0.03 0.03 0.03 0.03 0.03 0.03 0.03 0.02 0.02 0.02 0.02 0.02 0.02 0.03 0.02 0.02 0.02 0.02 0.02 0.02 0.01 0.01 0.01 0.01 0.01 0.01 0.01 0.01 0.01 0.01
0.00 0.00 0.00 0.00 0.00 0.00 0.00 0.00 0.00 0.01 0.01 0.02 0.02 0.02 0.03 0.03 0.05 0.05 0.04 0.03 0.02 0.02 0.02 0.01 0.01 0.02 0.02 0.02 0.02 0.01 0.01 0.01 0.01 0.01 0.01 0.01 0.01 0.00 0.00 0.01 0.01 0.01 0.01
0.00 0.00 0.00 0.00 0.00 0.00 0.00 0.00 0.00 0.01 0.01 0.01 0.02 0.02 0.03 0.03 0.03 0.03 0.02 0.01 0.01 0.01 0.01 0.01 0.01 0.02 0.02 0.01 0.01 0.01 0.01 0.01 0.01 0.01 0.01 0.01 0.01 0.01 0.01 0.01 0.01 0.01 0.01
0.00 0.00 0.00 0.00 0.00 0.01 0.01 0.01 0.01 0.01 0.02 0.02 0.02 0.02 0.02 0.03 0.02 0.02 0.01 0.01 0.01 0.01 0.01 0.01 0.01 0.01 0.01 0.01 0.01 0.00 0.00 0.00 0.01 0.01 0.01 0.01 0.01 0.01 0.01 0.01 0.02 0.02 0.02
0.01 0.01 0.01 0.01 0.01 0.01 0.01 0.02 0.02 0.02 0.02 0.02 0.02 0.02 0.02 0.02 0.02 0.02 0.01 0.01 0.02 0.02 0.02 0.01 0.01 0.01 0.01 0.01 0.01 0.00 0.00 0.00 0.00 0.00 0.00 0.01 0.01 0.01 0.01 0.01 0.02 0.03 0.03
0.01 0.01 0.02 0.02 0.02 0.02 0.02 0.02 0.02 0.02 0.02 0.02 0.01 0.01 0.01 0.01 0.02 0.02 0.02 0.01 0.01 0.01 0.01 0.01 0.01 0.01 0.01 0.01 0.00 0.00 0.00 0.00 0.00 0.00 0.00 0.00 0.00 0.01 0.01 0.01 0.01 0.02 0.02
0.02 0.02 0.02 0.03 0.03 0.04 0.04 0.03 0.03 0.03 0.02 0.02 0.02 0.02 0.02 0.02 0.02 0.02 0.01 0.01 0.01 0.01 0.01 0.00 0.00 0.00 0.00 0.00 0.00 0.00 0.00 0.00 0.00 0.00 0.00 0.00 0.00 0.01 0.01 0.01 0.01 0.02 0.02
0.02 0.02 0.02 0.03 0.04 0.05 0.05 0.04 0.04 0.03 0.03 0.03 0.03 0.02 0.02 0.02 0.01 0.01 0.01 0.01 0.00 0.00 0.00 0.00 0.00 0.01 0.01 0.01 0.01 0.01 0.01 0.01 0.01 0.01 0.01 0.01 0.00 0.00 0.00 0.01 0.01 0.01 0.02
0.02 0.02 0.02 0.02 0.02 0.03 0.03 0.03 0.03 0.03 0.03 0.03 0.02 0.02 0.02 0.01 0.01 0.01 0.01 0.01 0.01 0.01 0.01 0.01 0.01 0.01 0.01 0.01 0.01 0.01 0.01 0.01 0.01 0.01 0.01 0.01 0.00 0.00 0.01 0.01 0.01 0.01 0.02
0.02 0.02 0.02 0.02 0.02 0.03 0.03 0.03 0.02 0.02 0.02 0.02 0.02 0.02 0.02 0.02 0.02 0.01 0.01 0.01 0.01 0.01 0.01 0.01 0.02 0.02 0.02 0.01 0.01 0.01 0.01 0.01 0.01 0.01 0.01 0.01 0.01 0.01 0.01 0.01 0.01 0.01 0.02
0.02 0.02 0.02 0.03 0.04 0.04 0.04 0.04 0.04 0.04 0.03 0.03 0.03 0.02 0.02 0.02 0.02 0.02 0.02 0.02 0.02 0.02 0.02 0.02 0.02 0.02 0.02 0.02 0.01 0.01 0.01 0.01 0.01 0.01 0.01 0.01 0.01 0.02 0.02 0.02 0.03 0.03 0.03
0.02 0.02 0.03 0.03 0.04 0.04 0.04 0.05 0.05 0.04 0.04 0.04 0.03 0.03 0.02 0.02 0.02 0.02 0.02 0.02 0.02 0.02 0.02 0.02 0.02 0.02 0.02 0.01 0.01 0.01 0.01 0.01 0.01 0.01 0.01 0.01 0.01 0.01 0.01 0.01 0.01 0.02 0.02
0.02 0.03 0.03 0.04 0.04 0.03 0.03 0.03 0.04 0.04 0.04 0.03 0.03 0.03 0.03 0.03 0.03 0.03 0.02 0.02 0.02 0.02 0.02 0.02 0.02 0.02 0.02 0.01 0.01 0.02 0.02 0.01 0.01 0.01 0.01 0.01 0.01 0.01 0.01 0.01 0.01 0.01 0.01
0.02 0.03 0.04 0.04 0.04 0.04 0.03 0.03 0.03 0.03 0.04 0.04 0.04 0.03 0.03 0.03 0.03 0.03 0.03 0.03 0.03 0.03 0.03 0.03 0.02 0.02 0.02 0.02 0.02 0.02 0.02 0.02 0.01 0.01 0.01 0.01 0.01 0.01 0.01 0.01 0.01 0.01 0.01
0.03 0.04 0.04 0.04 0.04 0.04 0.03 0.03 0.03 0.03 0.03 0.03 0.04 0.04 0.03 0.03 0.03 0.03 0.03 0.03 0.03 0.03 0.03 0.03 0.03 0.03 0.03 0.02 0.02 0.02 0.02 0.02 0.02 0.02 0.01 0.01 0.01 0.01 0.01 0.01 0.01 0.01 0.01
0.03 0.04 0.04 0.03 0.03 0.03 0.03 0.03 0.03 0.03 0.03 0.03 0.03 0.03 0.03 0.03 0.03 0.03 0.03 0.03 0.03 0.03 0.03 0.03 0.03 0.03 0.03 0.03 0.03 0.03 0.03 0.02 0.02 0.02 0.01 0.01 0.01 0.01 0.01 0.01 0.01 0.01 0.01
0.04 0.04 0.03 0.03 0.03 0.03 0.03 0.03 0.03 0.03 0.03 0.02 0.02 0.02 0.03 0.03 0.02 0.02 0.03 0.03 0.03 0.03 0.03 0.03 0.03 0.04 0.04 0.03 0.03 0.03 0.03 0.02 0.02 0.02 0.02 0.01 0.01 0.01 0.01 0.01 0.01 0.01 0.01
0.04 0.04 0.04 0.03 0.02 0.02 0.02 0.02 0.02 0.02 0.02 0.02 0.02 0.02 0.02 0.02 0.02 0.02 0.02 0.02 0.03 0.03 0.03 0.03 0.04 0.04 0.04 0.03 0.03 0.03 0.03 0.02 0.02 0.02 0.01 0.01 0.01 0.01 0.01 0.01 0.01 0.01 0.01
0.03 0.03 0.02 0.02 0.02 0.02 0.02 0.02 0.02 0.02 0.02 0.02 0.02 0.02 0.02 0.02 0.02 0.02 0.02 0.02 0.02 0.03 0.03 0.03 0.03 0.03 0.03 0.03 0.03 0.03 0.02 0.02 0.02 0.02 0.01 0.01 0.01 0.01 0.01 0.01 0.01 0.01 0.01
0.02 0.02 0.02 0.01 0.01 0.01 0.01 0.01 0.01 0.01 0.01 0.02 0.02 0.01 0.01 0.02 0.02 0.02 0.02 0.02 0.02 0.02 0.02 0.02 0.02 0.02 0.02 0.02 0.02 0.02 0.02 0.02 0.02 0.01 0.01 0.01 0.01 0.01 0.01 0.01 0.01 0.01 0.01
0.02 0.01 0.01 0.01 0.01 0.01 0.01 0.01 0.01 0.01 0.01 0.01 0.01 0.01 0.01 0.01 0.01 0.02 0.02 0.02 0.02 0.02 0.02 0.02 0.02 0.02 0.02 0.02 0.02 0.02 0.01 0.01 0.01 0.01 0.01 0.01 0.01 0.01 0.01 0.01 0.01 0.01 0.01
0.01 0.01 0.01 0.01 0.01 0.01 0.01 0.01 0.01 0.01 0.01 0.01 0.01 0.01 0.01 0.01 0.01 0.01 0.01 0.01 0.01 0.01 0.01 0.01 0.01 0.01 0.01 0.01 0.01 0.01 0.01 0.01 0.01 0.01 0.01 0.01 0.01 0.01 0.01 0.01 0.01 0.01 0.01
MSLP
1011.32 1011.44 1011.55 1011.64 1011.73 1011.81 1011.87 1011.92 1011.95 1011.96 1011.94 1011.91 1011.87 1011.84 1011.84 1011.89 1012.00 1012.19 1012.43 1012.72 1013.04 1013.36 1013.65 1013.92 1014.16 1014.39 1014.63 1014.93 1015.31 1015.80 1016.41 1017.11 1017.89 1018.68 1019.43 1020.08 1020.60 1020.95 1021.13 1021.16 1021.07 1020.90 1020.67
1011.62 1011.77 1011.91 1012.03 1012.14 1012.21 1012.26 1012.27 1012.25 1012.20 1012.11 1012.01 1011.91 1011.84 1011.81 1011.84 1011.96 1012.15 1012.42 1012.75 1013.10 1013.45 1013.77 1014.06 1014.32 1014.56 1014.82 1015.13 1015.52 1016.02 1016.64 1017.36 1018.15 1018.96 1019.73 1020.41 1020.94 1021.31 1021.50 1021.54 1021.45 1021.26 1021.02
1011.77 1011.97 1012.16 1012.32 1012.46 1012.55 1012.61 1012.61 1012.57 1012.49 1012.37 1012.23 1012.10 1012.01 1011.96 1012.00 1012.13 1012.34 1012.64 1013.00 1013.39 1013.77 1014.14 1014.46 1014.75 1015.01 1015.28 1015.59 1015.98 1016.47 1017.07 1017.76 1018.52 1019.30 1020.05 1020.71 1021.24 1021.61 1021.82 1021.86 1021.78 1021.60 1021.36
1011.71 1011.96 1012.20 1012.41 1012.59 1012.73 1012.82 1012.84 1012.82 1012.74 1012.63 1012.50 1012.38 1012.29 1012.25 1012.30 1012.45 1012.68 1013.01 1013.39 1013.81 1014.24 1014.64 1015.00 1015.33 1015.63 1015.92 1016.24 1016.62 1017.08 1017.64 1018.28 1018.97 1019.70 1020.39 1021.01 1021.52 1021.88 1022.10 1022.17 1022.11 1021.95 1021.72
1011.42 1011.70 1011.99 1012.26 1012.50 1012.69 1012.83 1012.91 1012.94 1012.91 1012.85 1012.76 1012.68 1012.62 1012.62 1012.69 1012.85 1013.10 1013.43 1013.84 1014.28 1014.73 1015.17 1015.58 1015.95 1016.30 1016.62 1016.96 1017.34 1017.78 1018.29 1018.86 1019.49 1020.13 1020.76 1021.33 1021.81 1022.16 1022.39 1022.48 1022.46 1022.33 1022.13
1010.91 1011.24 1011.57 1011.89 1012.18 1012.44 1012.66 1012.82 1012.92 1012.98 1013.00 1012.98 1012.97 1012.96 1013.00 1013.10 1013.27 1013.52 1013.86 1014.26 1014.71 1015.18 1015.66 1016.11 1016.53 1016.93 1017.30 1017.67 1018.06 1018.49 1018.96 1019.48 1020.03 1020.60 1021.16 1021.68 1022.13 1022.48 1022.72 1022.84 1022.86 1022.77 1022.60
1010.28 1010.63 1011.00 1011.36 1011.72 1012.04 1012.34 1012.59 1012.79 1012.95 1013.07 1013.15 1013.22 1013.29 1013.37 1013.49 1013.68 1013.92 1014.25 1014.63 1015.08 1015.56 1016.05 1016.54 1017.01 1017.47 1017.90 1018.31 1018.73 1019.16 1019.61 1020.08 1020.58 1021.10 1021.60 1022.08 1022.50 1022.85 1023.10 1023.26 1023.31 1023.25 1023.11
1009.63 1010.00 1010.38 1010.78 1011.18 1011.57 1011.94 1012.28 1012.59 1012.86 1013.08 1013.27 1013.43 1013.57 1013.70 1013.85 1014.04 1014.28 1014.58 1014.95 1015.38 1015.85 1016.36 1016.88 1017.40 1017.91 1018.40 1018.87 1019.32 1019.77 1020.22 1020.67 1021.13 1021.60 1022.06 1022.51 1022.91 1023.26 1023.53 1023.71 1023.79 1023.77 1023.64
1009.04 1009.42 1009.82 1010.24 1010.67 1011.11 1011.54 1011.96 1012.35 1012.72 1013.05 1013.34 1013.58 1013.79 1013.98 1014.17 1014.37 1014.60 1014.89 1015.24 1015.65 1016.12 1016.64 1017.18 1017.75 1018.30 1018.85 1019.37 1019.86 1020.33 1020.78 1021.23 1021.67 1022.11 1022.54 1022.96 1023.35 1023.70 1023.98 1024.17 1024.28 1024.28 1024.17
1008.57 1008.94 1009.34 1009.77 1010.22 1010.68 1011.16 1011.64 1012.11 1012.55 1012.96 1013.33 1013.66 1013.94 1014.18 1014.41 1014.64 1014.89 1015.17 1015.52 1015.93 1016.40 1016.93 1017.50 1018.09 1018.69 1019.28 1019.84 1020.37 1020.86 1021.33 1021.77 1022.19 1022.61 1023.02 1023.42 1023.80 1024.14 1024.42 1024.63 1024.75 1024.76 1024.66
1008.21 1008.56 1008.95 1009.38 1009.83 1010.31 1010.81 1011.32 1011.83 1012.33 1012.81 1013.24 1013.64 1013.98 1014.29 1014.57 1014.85 1015.13 1015.45 1015.81 1016.24 1016.73 1017.27 1017.87 1018.49 1019.12 1019.73 1020.32 1020.88 1021.39 1021.86 1022.30 1022.71 1023.12 1023.51 1023.89 1024.25 1024.58 1024.86 1025.07 1025.19 1025.21 1025.12
1007.90 1008.23 1008.61 1009.03 1009.47 1009.95 1010.46 1010.98 1011.51 1012.04 1012.56 1013.04 1013.49 1013.91 1014.28 1014.63 1014.98 1015.32 1015.70 1016.11 1016.58 1017.11 1017.69 1018.31 1018.95 1019.60 1020.24 1020.84 1021.41 1021.93 1022.40 1022.84 1023.24 1023.63 1024.00 1024.37 1024.71 1025.03 1025.30 1025.51 1025.63 1025.65 1025.57
1007.58 1007.90 1008.26 1008.66 1009.09 1009.57 1010.06 1010.59 1011.12 1011.66 1012.20 1012.72 1013.22 1013.69 1014.15 1014.58 1015.01 1015.45 1015.91 1016.41 1016.95 1017.53 1018.15 1018.81 1019.48 1020.14 1020.79 1021.41 1021.97 1022.49 1022.96 1023.40 1023.80 1024.17 1024.53 1024.88 1025.21 1025.52 1025.78 1025.98 1026.10 1026.13 1026.05
1007.19 1007.48 1007.82 1008.22 1008.65 1009.11 1009.60 1010.11 1010.64 1011.18 1011.73 1012.28 1012.82 1013.36 1013.89 1014.43 1014.96 1015.51 1016.08 1016.67 1017.30 1017.96 1018.64 1019.33 1020.03 1020.71 1021.37 1021.99 1022.56 1023.08 1023.55 1023.99 1024.39 1024.76 1025.12 1025.46 1025.78 1026.07 1026.32 1026.51 1026.63 1026.66 1026.60
1006.67 1006.95 1007.29 1007.68 1008.11 1008.57 1009.06 1009.56 1010.08 1010.62 1011.18 1011.75 1012.34 1012.94 1013.56 1014.19 1014.84 1015.51 1016.19 1016.90 1017.62 1018.36 1019.10 1019.84 1020.57 1021.27 1021.94 1022.57 1023.15 1023.68 1024.16 1024.61 1025.02 1025.41 1025.77 1026.11 1026.43 1026.72 1026.96 1027.14 1027.26 1027.29 1027.23
1006.04 1006.31 1006.66 1007.06 1007.50 1007.97 1008.47 1008.97 1009.50 1010.04 1010.61 1011.21 1011.84 1012.50 1013.20 1013.93 1014.69 1015.47 1016.27 1017.08 1017.89 1018.71 1019.51 1020.30 1021.05 1021.78 1022.46 1023.11 1023.70 1024.25 1024.76 1025.24 1025.68 1026.09 1026.47 1026.83 1027.15 1027.44 1027.67 1027.85 1027.96 1027.98 1027.92
1005.35 1005.63 1005.99 1006.41 1006.88 1007.38 1007.89 1008.41 1008.95 1009.51 1010.11 1010.73 1011.41 1012.13 1012.90 1013.71 1014.57 1015.44 1016.34 1017.24 1018.13 1019.01 1019.86 1020.68 1021.46 1022.21 1022.91 1023.57 1024.19 1024.78 1025.32 1025.84 1026.32 1026.77 1027.18 1027.56 1027.90 1028.19 1028.42 1028.59 1028.68 1028.70 1028.62
1004.69 1004.98 1005.36 1005.82 1006.32 1006.85 1007.39 1007.94 1008.51 1009.10 1009.73 1010.39 1011.11 1011.89 1012.72 1013.61 1014.53 1015.49 1016.45 1017.41 1018.36 1019.28 1020.16 1021.00 1021.80 1022.55 1023.27 1023.95 1024.60 1025.22 1025.80 1026.36 1026.89 1027.38 1027.84 1028.24 1028.59 1028.89 1029.11 1029.27 1029.35 1029.34 1029.25
1004.14 1004.45 1004.86 1005.35 1005.89 1006.46 1007.04 1007.63 1008.24 1008.87 1009.53 1010.24 1011.00 1011.83 1012.72 1013.66 1014.64 1015.64 1016.65 1017.64 1018.61 1019.54 1020.43 1021.27 1022.06 1022.82 1023.54 1024.23 1024.90 1025.54 1026.17 1026.77 1027.34 1027.87 1028.36 1028.79 1029.15 1029.45 1029.67 1029.81 1029.87 1029.84 1029.71
1003.80 1004.12 1004.56 1005.08 1005.65 1006.25 1006.88 1007.51 1008.16 1008.83 1009.54 1010.29 1011.10 1011.98 1012.91 1013.88 1014.89 1015.92 1016.94 1017.94 1018.91 1019.82 1020.69 1021.51 1022.28 1023.01 1023.72 1024.41 1025.08 1025.74 1026.39 1027.01 1027.61 1028.17 1028.68 1029.13 1029.51 1029.81 1030.02 1030.14 1030.18 1030.12 1029.96
1003.70 1004.04 1004.50 1005.04 1005.63 1006.27 1006.92 1007.59 1008.28 1008.99 1009.74 1010.54 1011.39 1012.31 1013.27 1014.27 1015.29 1016.32 1017.34 1018.32 1019.26 1020.14 1020.96 1021.74 1022.47 1023.16 1023.84 1024.50 1025.15 1025.80 1026.45 1027.08 1027.69 1028.26 1028.78 1029.23 1029.61 1029.91 1030.12 1030.23 1030.24 1030.16 1029.98
1003.87 1004.22 1004.69 1005.23 1005.84 1006.48 1007.15 1007.85 1008.57 1009.32 1010.11 1010.94 1011.83 1012.77 1013.75 1014.77 1015.79 1016.81 1017.80 1018.75 1019.64 1020.47 1021.24 1021.96 1022.63 1023.27 1023.89 1024.50 1025.12 1025.74 1026.35 1026.96 1027.56 1028.12 1028.63 1029.08 1029.46 1029.76 1029.96 1030.07 1030.08 1029.98 1029.78
1004.27 1004.64 1005.10 1005.64 1006.24 1006.88 1007.56 1008.26 1008.99 1009.76 1010.58 1011.44 1012.35 1013.30 1014.29 1015.31 1016.32 1017.32 1018.28 1019.18 1020.02 1020.79 1021.50 1022.15 1022.75 1023.32 1023.88 1024.43 1024.98 1025.55 1026.12 1026.69 1027.24 1027.78 1028.27 1028.71 1029.09 1029.39 1029.60 1029.71 1029.72 1029.62 1029.42
1004.87 1005.23 1005.69 1006.21 1006.79 1007.42 1008.07 1008.77 1009.50 1010.27 1011.09 1011.96 1012.87 1013.83 1014.81 1015.81 1016.80 1017.77 1018.69 1019.54 1020.33 1021.04 1021.69 1022.27 1022.80 1023.31 1023.79 1024.27 1024.76 1025.26 1025.76 1026.28 1026.79 1027.28 1027.75 1028.18 1028.55 1028.85 1029.07 1029.20 1029.23 1029.15 1028.96
1005.59 1005.96 1006.39 1006.89 1007.44 1008.03 1008.66 1009.33 1010.04 1010.80 1011.60 1012.45 1013.35 1014.29 1015.25 1016.22 1017.17 1018.10 1018.97 1019.78 1020.51 1021.17 1021.76 1022.28 1022.76 1023.20 1023.62 1024.03 1024.45 1024.87 1025.31 1025.76 1026.22 1026.67 1027.11 1027.52 1027.89 1028.20 1028.44 1028.60 1028.65 1028.61 1028.44
1006.39 1006.75 1007.17 1007.64 1008.15 1008.70 1009.29 1009.92 1010.59 1011.30 1012.07 1012.89 1013.75 1014.65 1015.56 1016.48 1017.39 1018.26 1019.08 1019.83 1020.51 1021.12 1021.66 1022.14 1022.57 1022.96 1023.32 1023.68 1024.03 1024.40 1024.77 1025.17 1025.57 1025.97 1026.38 1026.77 1027.13 1027.45 1027.72 1027.90 1028.00 1027.99 1027.86
Thickness
5597 5597 5597 5597 5596 5596 5595 5594 5593 5592 5590 5588 5587 5585 5584 5581 5578 5575 5572 5569 5565 5561 5557 5554 5550 5546 5543 5539 5535 5532 5528 5524 5521 5519 5516 5511 5508 5505 5502 5499 5497 5495 5493
5581 5581 5581 5581 5580 5579 5579 5578 5577 5576 5575 5573 5572 5570 5569 5566 5564 5561 5557 5554 5550 5547 5543 5539 5536 5532 5528 5524 5521 5517 5513 5509 5506 5503 5501 5497 5493 5489 5487 5485 5482 5480 5478
5564 5564 5564 5563 5563 5562 5562 5561 5561 5559 5558 5557 5556 5554 5553 5550 5547 5545 5542 5538 5535 5531 5528 5524 5520 5516 5513 5509 5505 5502 5498 5494 5490 5487 5484 5480 5477 5474 5471 5469 5467 5465 5463
5546 5546 5545 5545 5544 5544 5544 5543 5542 5541 5540 5539 5538 5537 5535 5533 5531 5528 5524 5521 5518 5514 5511 5508 5504 5501 5498 5494 5490 5486 5482 5478 5475 5471 5468 5464 5461 5458 5454 5453 5452 5450 5447
5528 5527 5527 5526 5526 5525 5525 5524 5524 5523 5522 5521 5520 5519 5518 5516 5514 5510 5507 5504 5500 5497 5493 5490 5487 5484 5481 5478 5474 5470 5467 5463 5459 5456 5452 5449 5445 5441 5437 5435 5433 5433 5433
5509 5508 5508 5507 5507 5507 5506 5505 5505 5504 5503 5502 5501 5500 5499 5498 5496 5493 5490 5486 5483 5480 5477 5473 5470 5467 5464 5460 5457 5454 5450 5447 5444 5440 5436 5432 5428 5424 5420 5416 5414 5414 5416
5490 5489 5488 5488 5488 5488 5487 5486 5486 5485 5484 5483 5482 5481 5480 5479 5477 5475 5472 5469 5466 5463 5459 5456 5452 5450 5447 5445 5441 5437 5433 5430 5426 5423 5419 5416 5411 5407 5403 5400 5396 5393 5393
5472 5471 5470 5470 5469 5469 5469 5468 5467 5466 5465 5464 5463 5462 5461 5460 5459 5457 5454 5451 5448 5445 5442 5438 5435 5432 5430 5428 5425 5422 5417 5414 5409 5405 5403 5399 5393 5389 5385 5381 5378 5376 5376
5454 5453 5453 5453 5453 5452 5451 5450 5449 5448 5447 5445 5444 5443 5442 5442 5441 5438 5436 5433 5429 5426 5423 5420 5417 5416 5414 5412 5409 5405 5401 5396 5392 5388 5385 5381 5377 5372 5368 5364 5359 5357 5359
5437 5436 5436 5436 5436 5435 5434 5433 5432 5430 5429 5427 5426 5424 5424 5423 5422 5420 5418 5415 5412 5408 5405 5402 5401 5399 5397 5394 5391 5388 5384 5379 5374 5371 5367 5363 5359 5355 5350 5346 5342 5338 5336
5419 5418 5418 5418 5418 5418 5417 5416 5414 5412 5410 5409 5408 5406 5405 5404 5403 5402 5399 5396 5394 5391 5388 5385 5383 5382 5379 5376 5373 5370 5366 5361 5356 5352 5349 5345 5341 5337 5334 5329 5324 5321 5318
5401 5401 5400 5400 5401 5400 5400 5399 5397 5395 5393 5391 5389 5388 5386 5385 5384 5383 5381 5378 5376 5373 5370 5368 5365 5364 5361 5358 5355 5351 5347 5343 5338 5334 5331 5327 5324 5320 5317 5313 5309 5305 5302
5384 5384 5383 5383 5383 5383 5384 5383 5381 5379 5377 5376 5373 5371 5370 5368 5366 5365 5363 5361 5359 5355 5352 5350 5348 5345 5342 5339 5335 5332 5328 5324 5321 5317 5313 5310 5306 5302 5299 5297 5295 5292 5289
5369 5368 5368 5367 5367 5367 5368 5368 5366 5365 5362 5360 5358 5356 5354 5352 5350 5348 5345 5344 5341 5338 5334 5331 5329 5326 5323 5319 5316 5312 5309 5306 5302 5299 5296 5292 5289 5285 5282 5280 5278 5276 5274
5353 5353 5353 5352 5351 5351 5352 5351 5350 5350 5348 5346 5343 5341 5339 5338 5336 5334 5331 5328 5325 5322 5317 5313 5310 5307 5303 5300 5296 5293 5290 5287 5284 5280 5277 5274 5271 5268 5264 5262 5259 5257 5255
5338 5338 5337 5336 5336 5336 5335 5334 5334 5333 5332 5330 5328 5326 5324 5323 5321 5319 5316 5313 5309 5306 5300 5295 5292 5289 5285 5281 5277 5274 5271 5268 5264 5261 5258 5255 5252 5250 5247 5244 5242 5240 5239
5322 5322 5322 5322 5322 5321 5320 5319 5318 5316 5314 5313 5312 5310 5309 5307 5304 5302 5299 5296 5292 5288 5282 5278 5274 5270 5267 5263 5259 5255 5251 5248 5245 5242 5239 5236 5234 5231 5229 5227 5225 5224 5222
5306 5307 5307 5307 5306 5306 5305 5304 5302 5300 5298 5295 5294 5294 5292 5290 5288 5285 5282 5277 5271 5267 5264 5260 5256 5253 5249 5245 5242 5238 5234 5231 5228 5225 5221 5218 5215 5214 5212 5210 5208 5206 5206
5292 5292 5291 5291 5291 5290 5289 5287 5285 5283 5281 5279 5277 5275 5274 5272 5270 5266 5262 5257 5253 5249 5245 5241 5238 5235 5232 5229 5225 5222 5218 5215 5212 5208 5205 5202 5199 5197 5195 5193 5192 5191 5189
5277 5278 5277 5276 5275 5274 5273 5271 5269 5267 5265 5263 5261 5259 5256 5253 5249 5246 5242 5239 5235 5232 5229 5225 5222 5219 5216 5213 5209 5206 5203 5199 5196 5193 5190 5187 5184 5182 5180 5178 5177 5176 5174
5264 5264 5263 5262 5260 5259 5257 5255 5254 5252 5249 5247 5244 5244 5244 5238 5234 5230 5227 5224 5221 5218 5214 5210 5207 5204 5201 5197 5194 5191 5188 5185 5181 5178 5175 5172 5170 5167 5165 5163 5161 5160 5159
5251 5250 5249 5248 5246 5244 5242 5241 5239 5236 5234 5231 5229 5227 5227 5222 5219 5216 5213 5210 5207 5204 5201 5197 5193 5190 5187 5183 5180 5177 5173 5170 5167 5164 5161 5158 5155 5153 5150 5148 5146 5145 5144
5239 5237 5235 5234 5232 5230 5228 5226 5224 5222 5220 5217 5215 5212 5210 5207 5204 5202 5199 5196 5193 5190 5187 5184 5180 5177 5174 5171 5168 5164 5161 5158 5156 5152 5148 5146 5143 5140 5137 5134 5132 5131 5130
5227 5226 5224 5222 5219 5217 5215 5213 5211 5209 5206 5204 5201 5199 5197 5194 5191 5189 5186 5184 5181 5178 5175 5171 5168 5165 5161 5158 5155 5152 5149 5147 5144 5141 5137 5134 5130 5127 5124 5122 5119 5118 5116
5216 5215 5213 5210 5208 5206 5203 5201 5198 5196 5193 5191 5189 5187 5184 5181 5179 5177 5174 5171 5168 5165 5162 5160 5157 5153 5150 5147 5144 5141 5138 5135 5132 5130 5126 5123 5119 5116 5113 5110 5107 5105 5103
5205 5203 5201 5199 5197 5195 5192 5190 5187 5185 5182 5180 5178 5175 5172 5170 5167 5165 5162 5159 5156 5153 5151 5148 5145 5142 5139 5136 5133 5130 5128 5125 5123 5120 5116 5112 5108 5105 5102 5099 5096 5093 5091